2025-274D (66653 NORAD) Tracking and Keplerian Element Data

This shows tracking and keplerian element data for the satellite.

Feedback or suggestion? Click here.




ElementValue
Catalog66653
Name2025-274D
Epoch Orbit349
Epoch Day354.0605141
Epoch Year2025
RAAN281.1218
Inclination97.74
Eccentricity0.0011502
Argument of Perigee226.3643
Mean Anonmoly133.6622
Mean Motion14.91937478
Decay Rate1.414E-05
L11 66653U 25274D 25354.06051410 .00001414 00000+0 14512-3 0 9997
L22 66653 97.7400 281.1218 0011502 226.3643 133.6622 14.91937478 3495



Live tracking and technical data element details for 2025-274D (NORAD 66653). 2025-274D can be tracked NOW for your location showing map with azimuth and elevation plus other details from your city location.







IsCatalogInMostPopularTable: catalog: 66653, numindb: 13
Update: records affected: 1



GetName: 66653 2025-274D

Hit Count: updated at: Wed, 15 Apr 2026 01:05:53 GMT